+ View the NASA Portal
+ Center for Near-Earth Object Studies
IMPORTANT:
The SSD Announcement email list is now available. Major changes are coming in the near future, including possible hostname and/or URL changes. To be notified of such changes, subscribe to this email list.
Please visit
this page
for more details.
Don't show this message again
JPL Small-Body Database Browser
Search:
[
help
]
357038 (2000 QH13)
Classification:
Main-belt Asteroid
SPK-ID:
2357038
[
Ephemeris
|
Orbit Diagram
|
Orbital Elements
|
Mission Design
|
Physical Parameters
|
Discovery Circumstances
|
Close-Approach Data
]
[ show orbit diagram ]
Orbital Elements at Epoch 2458600.5 (2019-Apr-27.0) TDB
Reference:
JPL 12
(heliocentric ecliptic J2000)
Element
Value
Uncertainty (1-sigma)
Units
e
.2147363640090718
1.9103e-07
a
2.29375509848852
1.7751e-08
au
q
1.801202468711825
4.2965e-07
au
i
9.591650796794486
1.2595e-05
deg
node
325.6265132513492
3.1011e-05
deg
peri
346.2736207062152
3.7269e-05
deg
M
144.6049958363666
2.9647e-05
deg
t
p
2458090.817416093528
(2017-Dec-03.31741609)
0.00010008
TDB
period
1268.875457207304
3.47
1.4729e-05
4.033e-08
d
yr
n
.2837157878302194
3.2934e-09
deg/d
Q
2.786307728265216
2.1562e-08
au
Orbit Determination Parameters
# obs. used (total)
187
data-arc span
6731 days (18.43 yr)
first obs. used
2000-07-05
last obs. used
2018-12-09
planetary ephem.
DE431
SB-pert. ephem.
SB431-N16
condition code
0
norm. resid. RMS
.59609
source
ORB
producer
Otto Matic
solution date
2019-Jul-13 06:18:01
Additional Information
Earth MOID
= .788044 au
Jupiter MOID
= 2.50782 au
T_jup
= 3.547
[ show covariance matrix ]
[
Ephemeris
|
Orbit Diagram
|
Orbital Elements
|
Mission Design
|
Physical Parameters
|
Discovery Circumstances
|
Close-Approach Data
]
Physical Parameter Table
Parameter
Symbol
Value
Units
Sigma
Reference
Notes
absolute magnitude
H
17.1
n/a
MPO368416
357038 (2000 QH13)
Discovered 2000-Aug-24 by LINEAR at Socorro
Reference:
20130327/Numbers.arc
Last Updated:
2013-03-29
[ show close-approach data ]
[
Ephemeris
|
Orbit Diagram
|
Orbital Elements
|
Mission Design
|
Physical Parameters
|
Discovery Circumstances
|
Close-Approach Data
]
2019-Dec-12 08:44 UT
(server date/time)
Site Manager:
Ryan S. Park
Webmaster
:
Alan B. Chamberlin